Flag for Canada Weather past 2 weeks in Gatineau, Quebec, Canada

Now
52 °F

Partly sunny.


Feels Like: 52 °F
Forecast: 33 / 61 °F
Wind: 2 mph from North

Location: Ottawa Int'L. Ont.


UV Index: 5 (Moderate)

Visibility: 15 mi


Pressure: 30.40 "Hg

Humidity: 28%

Dew point: 19 °F

Location of GatineauLocation

Historic Weather in Gatineau

°F

Gatineau temperature yesterday

Maximum temperature yesterday: 52 °F (at 5:00 PM)
Minimum temperature yesterday: 37 °F (at 1:00 AM)
Average temperature yesterday: 42 °F

Past Weeks' High & Low Weather Summary

 TemperatureHumidityPressure
High77 °F (Apr 14, 1:00 PM)100% (Apr 8, 3:00 AM)30.74 "Hg (Apr 8, 3:00 AM)
Low16 °F (Apr 16, 4:00 AM)21% (Apr 19, 7:00 PM)29.27 "Hg (Apr 8, 12:00 PM)
Average40 °F66%30.02 "Hg
* Reported Apr 5 12:00 Noon — Apr 20 12:00 Noon, Gatineau, Weather by CustomWeather, © 2014

Note: Actual official high and low records may vary slightly from our data, if they occured in-between our weather recording intervals... More about our weather records

Advertising

Historic Weather Conditions — Data for Previous 24 hours

 ConditionsComfort  
Time TempWeatherWind HumidityBarometerVisibility
12:00 PM
Apr 20
50 °FScattered clouds.8 mph28%30.42 "Hg15 mi
11:00 AM48 °FScattered clouds.8 mph32%30.46 "Hg15 mi
10:00 AM45 °FScattered clouds.8 mph34%30.49 "Hg15 mi
9:00 AM41 °FBroken clouds.7 mph39%30.51 "Hg15 mi
8:00 AM37 °FBroken clouds.9 mph41%30.50 "Hg15 mi
7:00 AM32 °FPassing clouds.5 mph55%30.50 "Hg15 mi
6:00 AM32 °FPassing clouds.9 mph55%30.47 "Hg15 mi
5:00 AM32 °FPassing clouds.9 mph60%30.47 "Hg15 mi
4:00 AM32 °FPassing clouds.7 mph60%30.47 "Hg15 mi
3:00 AM30 °FPassing clouds.6 mph59%30.47 "Hg15 mi
2:00 AM30 °FPassing clouds.6 mph51%30.47 "Hg15 mi
1:00 AM34 °FPassing clouds.2 mph48%30.47 "Hg15 mi
12:00 AM39 °FClear.5 mph30%30.47 "Hg15 mi
11:00 PM
Apr 19
37 °FClear.3 mph33%30.46 "Hg15 mi
10:00 PM39 °FPassing clouds.6 mph33%30.46 "Hg15 mi
9:00 PM41 °FPassing clouds.6 mph31%30.45 "Hg15 mi
8:00 PM45 °FPassing clouds.8 mph25%30.43 "Hg15 mi
7:00 PM48 °FScattered clouds.12 mph21%30.41 "Hg15 mi
6:00 PM50 °FBroken clouds.15 mph24%30.41 "Hg15 mi
5:00 PM52 °FScattered clouds.13 mph26%30.41 "Hg15 mi
4:00 PM50 °FPassing clouds.14 mph25%30.41 "Hg15 mi
3:00 PM50 °FPassing clouds.13 mph30%30.41 "Hg15 mi
2:00 PM48 °FPassing clouds.15 mph34%30.42 "Hg15 mi
1:00 PM45 °FPassing clouds.5 mph46%30.42 "Hg15 mi
Weather by CustomWeather, © 2014

See weather overview